Live-Position
3D-Globus wird geladen...
Über Sherpa UFF
Group: 3 satellites
Beschreibung wird geladen...
Nächste Überflüge
Passes for default location (London). Set your location on the main map for personalized predictions.
Höhenverlauf
Loading altitude history...
No altitude history available
Zweizeiliger Elementsatz
1 43763U 18099F 26120.09485256 .00004852 00000-0 29231-3 0 9999
2 43763 97.4401 170.4807 0014509 109.4649 250.8151 15.11157091405281
Epoch: 30. Apr. 2026 •
Age: 13 hours
Aktueller Status
Höhe 536.4 km
Geschwindigkeit 7.60 km/s
Subsatellitenpunkt 65.37°N,
66.74°E
Startdatum 3. Dez. 2018
Alter 7.4 years
Typ other
Technische Details
Klassifizierung Payload
Masse 1072.00 kg
Trockenmasse 1072.00 kg
Gesamtmasse 2271.00 kg
Länge 3.10 m
Durchmesser 2.00 m
Spannweite 4.00 m
Form Cyl+Sail
Hersteller SFLIN
Bus-Typ SFL-UFF
Phasenstatus In Orbit
Besitzer/Staat SFLIN/US
Most Searched
Loading...